Flag for Italy Weather past 2 weeks in Bologna, Italy

Now
50 °F

Clear.


Feels Like: 50 °F
Forecast: 41 / 60 °F
Wind: 2 mph from North

Location: Bologna / Borgo Panigale

Current Time: Mar 27, 2015 at 9:06:44 PM

Latest Report: Mar 27, 2015 at 8:20 PM


Visibility: 10 mi

Pressure: 29.92 "Hg

Humidity: 71%

Dew point: 41 °F

Location of BolognaLocation

Historic Weather in Bologna — Graph

°F

Bologna temperature yesterday

Maximum temperature yesterday: 59 °F (at 4:20 PM)
Minimum temperature yesterday: 50 °F (at 12:20 AM)
Average temperature yesterday: 53 °F

Past Weeks' High & Low Weather Summary

 TemperatureHumidityPressure
High61 °F (Mar 13, 2:20 PM)100% (Mar 16, 4:50 AM)30.33 "Hg (Mar 16, 4:50 AM)
Low37 °F (Mar 14, 4:50 AM)29% (Mar 13, 11:50 AM)29.45 "Hg (Mar 25, 1:20 PM)
Average50 °F79%30.04 "Hg
* Reported Mar 12 7:20 PM — Mar 27 7:50 PM, Bologna, Weather by CustomWeather, © 2015

Note: Actual official high and low records may vary slightly from our data, if they occured in-between our weather recording intervals... More about our weather records

Advertising

Bologna weather history for previous 24 hours

 ConditionsComfort  
Time TempWeatherWind HumidityBarometerVisibility
7:50 PM
Fri, Mar 27
52 °FClear.3 mph72%29.89 "Hg10 mi
7:20 PM52 °FClear.No wind72%29.89 "Hg10 mi
6:50 PM52 °FClear.2 mph67%29.86 "Hg10 mi
6:20 PM54 °FSunny.5 mph67%29.86 "Hg10 mi
5:50 PM57 °FSunny.8 mph55%29.86 "Hg10 mi
5:20 PM57 °FPassing clouds.7 mph55%29.83 "HgN/A
4:50 PM57 °FPassing clouds.7 mph51%29.83 "HgN/A
4:20 PM57 °FPassing clouds.12 mph55%29.83 "HgN/A
3:50 PM57 °FPassing clouds.12 mph59%29.83 "HgN/A
3:20 PM57 °FPartly sunny.15 mph59%29.83 "HgN/A
2:50 PM57 °FScattered clouds.15 mph63%29.83 "HgN/A
2:20 PM57 °FScattered clouds.16 mph63%29.83 "HgN/A
1:50 PM57 °FScattered clouds.15 mph59%29.80 "HgN/A
1:20 PM59 °FScattered clouds.10 mph63%29.80 "HgN/A
12:50 PM57 °FScattered clouds.8 mph72%29.80 "HgN/A
12:20 PM55 °FScattered clouds.6 mph77%29.80 "HgN/A
11:50 AM52 °FScattered clouds.5 mph94%29.80 "HgN/A
11:20 AM52 °FRain. Fog.7 mph88%29.77 "Hg2 mi
10:50 AM52 °FRain. Fog.8 mph94%29.77 "Hg2 mi
10:20 AM54 °FFog.6 mph94%29.74 "Hg2 mi
9:50 AM54 °FLight rain. Fog.7 mph94%29.74 "Hg2 mi
9:20 AM52 °FFog.6 mph100%29.74 "Hg2 mi
8:50 AM54 °FFog.6 mph94%29.74 "Hg2 mi
8:20 AM52 °FFog.5 mph100%29.71 "Hg2 mi
7:50 AM52 °FFog.5 mph100%29.71 "Hg2 mi
7:20 AM52 °FFog.6 mph94%29.71 "Hg3 mi
6:50 AM52 °FFog.5 mph94%29.71 "Hg3 mi
6:20 AM52 °FFog.3 mph94%29.71 "Hg2 mi
5:50 AM52 °FFog.6 mph100%29.71 "Hg2 mi
5:20 AM52 °FPartly cloudy.5 mph94%29.71 "Hg4 mi
4:50 AM52 °FPartly cloudy.3 mph94%29.71 "Hg6 mi
3:50 AM52 °FPassing clouds.6 mph94%29.71 "Hg4 mi
3:20 AM52 °FPassing clouds.7 mph94%29.71 "Hg4 mi
2:50 AM50 °FPassing clouds.2 mph100%29.71 "Hg4 mi
2:20 AM50 °FPassing clouds.3 mph100%29.71 "Hg4 mi
1:50 AM50 °FPassing clouds.2 mph100%29.74 "Hg4 mi
1:20 AM48 °FPassing clouds.3 mph100%29.74 "Hg4 mi
12:50 AM48 °FFog.2 mph100%29.74 "Hg4 mi
12:20 AM50 °FFog.1 mph100%29.74 "Hg4 mi
11:50 PM
Thu, Mar 26
52 °FFog.3 mph100%29.74 "HgN/A
11:20 PM52 °FFog.1 mph94%29.74 "HgN/A
10:50 PM52 °FPassing clouds.1 mph100%29.74 "HgN/A
10:20 PM54 °FPassing clouds.1 mph94%29.77 "HgN/A
9:50 PM52 °FPassing clouds.3 mph100%29.74 "HgN/A
9:20 PM54 °FPassing clouds.No wind94%29.77 "HgN/A
Weather by CustomWeather, © 2015

See weather overviewHow to use our weather pages